Home   Weather   Port St. Lucie   Past weeks

Flag for USA Past Weather in Port St. Lucie, Florida, USA — Yesterday and Last 2 Weeks

Now
84 °F

Sunny.


Feels Like: 82 °F
Forecast: 59 / 82 °F
Wind: 6 mph from Southwest

Location: Witham Field Airport

Current Time: Jan 20, 2017 at 3:29:49 pm

Latest Report: Jan 20, 2017 at 2:47 pm


Visibility: 7 mi

Pressure: 29.94 "Hg

Humidity: 31%

Dew Point: 50 °F

Location of Port St. LucieLocation

Past Weather in Port St. Lucie — Graph

°F

Port St. Lucie Temperature Yesterday

Maximum temperature yesterday: 81 °F (at 12:47 pm)
Minimum temperature yesterday: 63 °F (at 3:55 am)
Average temperature yesterday: 70 °F

High & Low Weather Summary for the Past Weeks

 TemperatureHumidityPressure
High84 °F (Jan 6, 2:53 pm)94% (Jan 6, 1:55 am)30.56 "Hg (Jan 6, 1:55 am)
Low46 °F (Jan 8, 4:55 am)29% (Jan 6, 2:53 pm)29.89 "Hg (Jan 5, 2:47 pm)
Average70 °F68%30.25 "Hg
* Reported Jan 5 1:47 pm — Jan 20 1:47 pm, Port St. Lucie, Weather by CustomWeather, © 2017

Note: Actual official high and low records may vary slightly from our data, if they occured in-between our weather recording intervals... More about our weather records

Advertising

Port St. Lucie Weather History for the Previous 24 Hours

Scroll right to see more
 ConditionsComfort  
Time TempWeatherWind HumidityBarometerVisibility
1:47 pm
Fri, Jan 20
84 °FSunny.9 mph31%29.95 "Hg7 mi
12:47 pm82 °FPassing clouds.9 mph42%29.99 "Hg7 mi
11:47 am81 °FSunny.6 mph48%30.02 "Hg7 mi
10:47 am79 °FPassing clouds.5 mph54%30.05 "Hg7 mi
9:47 am75 °FSunny.5 mph69%30.04 "Hg7 mi
8:47 am68 °FSunny.No wind94%30.02 "Hg7 mi
7:50 am64 °FSunny.No wind94%30.02 "Hg7 mi
6:50 am64 °FClear.5 mph94%30.02 "Hg10 mi
6:15 am63 °FClear.No wind94%30.02 "Hg7 mi
5:55 am63 °FClear.No wind94%30.02 "Hg10 mi
5:15 am63 °FClear.No wind94%30.01 "Hg10 mi
4:55 am63 °FClear.No wind94%30.01 "Hg10 mi
4:35 am63 °FClear.No wind94%30.01 "Hg10 mi
3:55 am63 °FClear.No wind94%30.02 "Hg10 mi
3:15 am64 °FClear.No wind88%30.01 "Hg10 mi
2:35 am64 °FClear.5 mph88%30.01 "Hg10 mi
1:55 am66 °FClear.3 mph88%30.01 "Hg10 mi
1:15 am68 °FClear.5 mph83%30.00 "Hg10 mi
12:55 am68 °FClear.5 mph83%29.99 "Hg10 mi
12:15 am70 °FClear.7 mph78%30.00 "Hg10 mi
11:55 pm
Thu, Jan 19
70 °FClear.8 mph78%30.00 "Hg10 mi
11:15 pm70 °FClear.7 mph78%30.00 "Hg10 mi
10:35 pm72 °FClear.6 mph73%30.01 "Hg10 mi
8:47 pm72 °FClear.6 mph73%30.02 "Hg7 mi
7:47 pm73 °FClear.6 mph74%30.02 "Hg7 mi
6:47 pm75 °FClear.6 mph69%30.02 "Hg7 mi
5:47 pm75 °FPassing clouds.6 mph69%30.01 "Hg7 mi
4:47 pm79 °FPassing clouds.7 mph58%30.00 "Hg7 mi
Weather by CustomWeather, © 2017

See weather overviewHow to use our weather pages